Find Starlink 32631

NORAD ID: 62235 Int'l Des: 2024-231 Owner: SPXS Country: US Constellation: starlink operational
LEOCIRCULAR

リアルタイム位置

3D地球を読み込み中...

Starlink 32631について

説明を読み込み中...

次回通過

Passes for default location (London). Set your location on the main map for personalized predictions.

高度履歴

Loading altitude history...

軌道要素

1 62235U 24231T 26126.95724795 .00025473 00000-0 82949-3 0 9991
2 62235 53.1597 295.9017 0000949 88.8118 271.2992 15.31713073 80864
Epoch: May 6, 2026 • Age: 15 hours

現在のステータス

高度 477.0 km
速度 7.63 km/s
衛星直下点 -21.64°S, 55.23°E
打ち上げ日 Dec 5, 2024
運用期間 1.4 years
タイプ internet

技術仕様

分類 Payload
質量 730.00 kg
乾燥質量 700.00 kg
総質量 730.00 kg
長さ 0.30 m
直径 4.10 m
スパン 29.00 m
形状 Box + pan
製造者 SPXS
バスタイプ Starlink V2M
フェーズステータス In Orbit
所有者/国 SPXS/US

Most Searched